7M1JBF-11 Weather Reports


time (UTC)temp
F
wind
direction
speed
knots
gust
knots
rain 1hr
in
rain 24hr
in
rain mn
in
humidity
%
barometer
mb
20260504204636 60 175 0.0 1.7 0.00 0.00 0.00 100 1017.0
20260504203634 59 74 0.9 3.5 0.00 0.00 0.00 100 1017.0
20260504202634 58 90 0.0 1.7 0.00 0.00 0.00 100 1016.7
20260504201632 57 90 0.0 1.7 0.00 0.00 0.00 100 1016.3
20260504200630 57 90 0.0 2.6 0.00 0.00 0.00 100 1016.0
20260504195630 57 90 0.0 2.6 0.00 0.00 0.00 100 1015.7
20260504194628 57 83 0.9 2.6 0.00 0.00 0.00 100 1015.4
20260504193626 57 49 0.0 1.7 0.00 0.00 0.00 100 1015.1
20260504192626 57 67 0.0 4.3 0.00 0.00 0.00 100 1014.8
20260504191625 57 125 0.9 1.7 0.00 0.00 0.00 100 1014.6
20260504190622 57 81 1.7 3.5 0.00 0.00 0.00 100 1014.7
20260504185621 58 119 1.7 3.5 0.00 0.00 0.00 100 1014.4
20260504184619 58 76 2.6 2.6 0.00 0.00 0.00 100 1014.2
20260504183618 58 152 0.0 3.5 0.00 0.00 0.00 100 1014.3
20260504182617 58 90 0.0 2.6 0.00 0.00 0.00 100 1014.0
20260504181615 58 144 0.0 2.6 0.00 0.00 0.00 100 1013.8
20260504180614 58 213 0.9 2.6 0.00 0.00 0.00 100 1013.6
20260504175613 58 199 0.9 2.6 0.00 0.00 0.00 100 1013.3
20260504174611 58 85 1.7 2.6 0.00 0.00 0.00 100 1013.0
20260504173610 58 120 0.9 1.7 0.00 0.00 0.00 100 1012.7
20260504172609 58 187 0.9 2.6 0.00 0.00 0.00 100 1012.4
20260504171607 58 45 0.9 3.5 0.00 0.00 0.00 100 1012.1
20260504170606 58 257 2.6 3.5 0.00 0.00 0.00 100 1011.8
20260504150549 62 153 1.7 4.3 0.00 0.00 0.13 100 1008.8
20260504140541 64 85 0.0 5.2 0.00 0.00 0.13 100 1007.6
20260504130535 67 132 0.9 2.6 0.00 0.00 0.13 100 1006.1
20260504110517 70 58 1.7 3.5 0.00 0.00 0.13 100 1002.4
20260504100509 74 85 0.9 3.5 0.00 0.00 0.13 100 1000.3
20260504081454 76 198 2.6 12.2 0.00 0.00 0.13 100 996.5
20260504080452 76 208 7.8 12.2 0.00 0.00 0.13 100 996.2
20260504050428 78 229 11.3 15.6 0.00 0.00 0.12 100 994.4
20260504045426 78 202 9.6 14.8 0.00 0.00 0.12 100 994.3
20260504043423 80 215 7.0 17.4 0.00 0.00 0.12 100 994.7
20260504042422 81 225 15.6 16.5 0.00 0.00 0.12 100 994.9
20260504041421 81 227 12.2 15.6 0.00 0.00 0.12 100 995.0
20260504040420 81 227 13.9 19.1 0.00 0.00 0.12 100 995.1
20260504035418 81 231 9.6 15.6 0.00 0.00 0.12 100 995.2
20260504034417 81 222 7.8 10.4 0.00 0.00 0.12 100 995.5
20260504033415 81 234 11.3 13.0 0.00 0.00 0.12 100 995.5
20260504032414 81 220 14.8 14.8 0.00 0.00 0.12 100 995.2
20260504031413 82 102 5.2 10.4 0.00 0.00 0.12 100 995.5
20260504030412 82 189 4.3 14.8 0.00 0.00 0.12 100 995.6
20260504025410 82 220 7.8 13.9 0.00 0.00 0.12 100 995.7
20260504021405 85 209 9.6 11.3 0.00 0.00 0.12 100 995.7
20260504020403 85 217 1.7 6.1 0.00 0.00 0.12 100 995.9
20260504015402 85 83 0.9 2.6 0.00 0.00 0.12 100 996.2
20260504014400 84 90 0.0 1.7 0.00 0.00 0.12 100 996.3
20260504013359 83 56 1.7 3.5 0.00 0.00 0.12 100 996.1
20260504012358 83 75 0.0 1.7 0.00 0.00 0.12 100 996.2
20260504011356 82 90 0.9 2.6 0.00 0.00 0.12 100 996.5
20260504010355 81 74 1.7 1.7 0.00 0.00 0.12 100 996.4
20260504005354 79 211 0.0 1.7 0.00 0.00 0.12 100 996.6
20260504004352 77 45 0.0 0.0 0.00 0.00 0.12 100 996.8
20260504003351 75 76 0.0 0.9 0.00 0.00 0.12 100 996.9
20260504002349 74 90 0.0 0.0 0.00 0.00 0.12 100 996.9
20260504000342 72 139 0.0 0.0 0.00 0.00 0.12 100 996.7
20260503235340 70 45 0.0 0.0 0.00 0.00 0.12 100 996.9
20260503234339 70 148 0.0 0.0 0.00 0.00 0.12 100 996.8
20260503233338 69 45 0.0 0.0 0.00 0.00 0.12 100 997.1
20260503232336 70 90 0.0 0.0 0.00 0.00 0.12 100 996.9
20260503231335 70 225 0.0 0.9 0.00 0.00 0.12 100 997.1
20260503230334 70 135 0.0 0.0 0.00 0.00 0.12 100 997.1
20260503225332 71 112 0.0 0.9 0.00 0.00 0.12 100 997.0
20260503224331 71 90 0.0 0.0 0.00 0.00 0.12 100 997.0
20260503223330 72 90 0.0 1.7 0.00 0.00 0.12 100 997.0
20260503222328 72 216 11.3 13.9 0.00 0.00 0.12 100 996.6
20260503221327 71 238 9.6 18.2 0.00 0.00 0.12 100 996.2
20260503220326 71 270 10.4 18.2 0.00 0.00 0.12 100 996.3
20260503215324 70 220 12.2 26.9 0.00 0.00 0.12 100 996.1
20260503214323 70 218 20.9 20.9 0.00 0.00 0.12 100 995.9
20260503213322 70 202 10.4 20.0 0.00 0.00 0.12 100 995.8
20260503212320 69 229 13.9 18.2 0.00 0.00 0.12 100 996.2
20260503211319 69 227 24.3 26.9 0.00 0.00 0.11 100 995.8
20260503210317 69 231 19.1 24.3 0.00 0.00 0.11 100 995.4